Regional Weather Roundup
Issued by NWS

Home | Current Version | Previous Version | Graphics & Text | Print | Product List | Glossary On
Versions: 1 2 3 4 5 6 7 8 9 10 11 12 13 14 15 16 17 18 19 20 21 22 23 24 25 26 27 28 29 30 31 32 33 34 35 36 37 38 39 40 41 42 43 44 45 46 47 48 49 50
000
ASUS43 KIND 010659
RWRIN

WEATHER ROUNDUP FOR INDIANA
NATIONAL WEATHER SERVICE INDIANAPOLIS IN
300 AM EDT MON SEP 01 2014

NOTE: "FAIR" INDICATES FEW OR NO CLOUDS BELOW 12,000 FEET WITH NO
SIGNIFICANT WEATHER AND/OR OBSTRUCTIONS TO VISIBILITY.

* - STATION DOES NOT REPORT WEATHER SUCH AS PRECIPITATION OR FOG.

+ - STATION NOT QUALITY CONTROLLED BY THE NATIONAL WEATHER SERVICE.
    USE DATA WITH CAUTION...ESPECIALLY DEWPOINT AND RELATIVE
    HUMIDITY OBSERVATIONS.

INZ001>003-010>013-019-020-010800-
NORTHWEST INDIANA

CITY           SKY/WX    TMP DP  RH WIND       PRES   REMARKS
KNOX *+        PTCLDY    71  68  91 S7        29.90F
MONTICELLO +   PTCLDY    72  71  96 S6        29.92F
VALPARAISO     CLEAR     72  69  90 S7        29.90F

$$

LMZ046-743>745-010800-
SOUTHERN LAKE MICHIGAN

STATION/POSITION TIME  TEMP WIND        PRES
                       AIR  DIR/SP/G
                 (UTC) (F)  (DEG/KT/KT) (MB)
MICHIGAN CITY    0600   73  160/  8/ 12   N/A

$$

INZ004-005-014>016-021>024-010800-
NORTH CENTRAL INDIANA

CITY           SKY/WX    TMP DP  RH WIND       PRES   REMARKS
GOSHEN         CLEAR     73  69  87 S7        29.93F
SOUTH BEND     MOCLDY    73  69  87 S9        29.91F

$$

INZ006>009-017-018-025>027-010800-
NORTHEAST INDIANA

CITY           SKY/WX    TMP DP  RH WIND       PRES   REMARKS
ANGOLA *+      CLEAR     68  59  73 S3        29.95S
FORT WAYNE     PTCLDY    70  68  93 S6        29.96F

$$

INZ028-029-035-036-043>045-051>053-010800-
WEST CENTRAL INDIANA

CITY           SKY/WX    TMP DP  RH WIND       PRES   REMARKS
GREENCASTLE +  CLEAR     70  70 100 S3        29.96F FOG
LAFAYETTE      PTCLDY    72  70  93 S5        29.92F
TERRE HAUTE    CLEAR     72  70  93 S6        29.94F

$$

INZ030>032-037>040-046>048-054>057-064-065-010800-
CENTRAL INDIANA

CITY           SKY/WX    TMP DP  RH WIND       PRES   REMARKS
FRANKFORT +    CLEAR    N/A N/A N/A CALM      29.96F HAZE
INDIANAPOLIS   PTCLDY    71  69  93 S8        29.95F
-EAGLE CREEK   MOCLDY    72  69  90 S3        29.96F
KOKOMO *+      CLEAR     70  66  88 S5        29.96S
MT COMFORT *+  CLOUDY    70 N/A N/A S3        29.98F
SHELBYVILLE    CLOUDY    73  70  90 S10       29.98S FOG

$$

INZ033-034-041-042-049-050-058-059-010800-
EAST CENTRAL INDIANA

CITY           SKY/WX    TMP DP  RH WIND       PRES   REMARKS
MUNCIE         MOCLDY    71  68  90 S6        29.98S

$$

INZ060-061-067>069-081>083-085>088-010800-
SOUTHWEST INDIANA

CITY           SKY/WX    TMP DP  RH WIND       PRES   REMARKS
EVANSVILLE     CLEAR     74  71  91 S5        29.98S

$$

INZ062-063-066-070>080-084-089>092-010800-
SOUTH CENTRAL AND SOUTHEAST INDIANA

CITY           SKY/WX    TMP DP  RH WIND       PRES   REMARKS
BLOOMINGTON    PTCLDY    72  70  93 S6        29.98S

$$



USA.gov is the U.S. government's official web portal to all federal, state and local government web resources and services.